This is the latest recevied weather packets stored in our database for station/object KB3AWQ. If no packets are shown the sender has not sent any weather packets the latest 10 day(s).
| Time | Temp. | Humidity | Pressure | Rain* | Wind** | Luminosity | Snow |
|---|---|---|---|---|---|---|---|
| 1777814966 | 9.44° C | 52% | 1015.3 hPa | 0 mm | - | 576 W/m² | - |
| 1777814666 | 9.44° C | 52% | 1015.3 hPa | 0 mm | - | 557 W/m² | - |
| 1777814366 | 9.44° C | 52% | 1015.4 hPa | 0 mm | - | 542 W/m² | - |
| 1777814067 | 9.44° C | 53% | 1015.4 hPa | 0 mm | - | 525 W/m² | - |
| 1777813767 | 9.44° C | 53% | 1015.4 hPa | 0 mm | - | 507 W/m² | - |
| 1777813467 | 9.44° C | 52% | 1015.4 hPa | 0 mm | - | 491 W/m² | - |
| 1777813166 | 8.89° C | 55% | 1015.4 hPa | 0 mm | - | 472 W/m² | - |
| 1777812866 | 8.89° C | 55% | 1015.5 hPa | 0 mm | - | 456 W/m² | - |
| 1777812566 | 8.89° C | 53% | 1015.4 hPa | 0 mm | - | 440 W/m² | - |
| 1777812267 | 8.89° C | 54% | 1015.4 hPa | 0 mm | - | 421 W/m² | - |
| 1777811966 | 8.33° C | 60% | 1015.4 hPa | 0 mm | - | 405 W/m² | - |
| 1777811666 | 8.33° C | 62% | 1015.4 hPa | 0 mm | - | 387 W/m² | - |
| 1777811367 | 8.33° C | 65% | 1015.5 hPa | 0 mm | - | 369 W/m² | - |
| 1777811066 | 8.33° C | 67% | 1015.4 hPa | 0 mm | - | 350 W/m² | - |
| 1777810766 | 7.78° C | 67% | 1015.4 hPa | 0 mm | - | 333 W/m² | - |
| 1777810466 | 7.22° C | 70% | 1015.4 hPa | 0 mm | - | 316 W/m² | - |
| 1777810166 | 6.67° C | 72% | 1015.4 hPa | 0 mm | - | 298 W/m² | - |
| 1777809867 | 6.67° C | 72% | 1015.4 hPa | 0 mm | - | 281 W/m² | - |
| 1777809567 | 6.67° C | 71% | 1015.4 hPa | 0 mm | - | 263 W/m² | - |
| 1777809267 | 6.67° C | 73% | 1015.4 hPa | 0 mm | - | 248 W/m² | - |
| 1777808967 | 6.67° C | 71% | 1015.4 hPa | 0 mm | - | 230 W/m² | - |
| 1777808666 | 6.67° C | 71% | 1015.4 hPa | 0 mm | - | 213 W/m² | - |
| 1777808366 | 6.67° C | 72% | 1015.4 hPa | 0 mm | - | 196 W/m² | - |
| 1777808066 | 6.11° C | 72% | 1015.4 hPa | 0 mm | - | 180 W/m² | - |
| 1777807766 | 6.11° C | 72% | 1015.3 hPa | 0 mm | - | 161 W/m² | - |
* Rain latest hour (hover to see other rain measurements)
** Current wind speed in m/s (hover to see current wind gust speed)